Marshfield, WI

10:12 AM CDT on September 23, 2017 (GMT -0500)
Marshfield Municipal

Weather History for KMFI - December, 2012

Change the Weather History Date:

Saturday, December 22, 2012

  Actual Average Record
Temperature  
Mean Temperature 14 °F -  
Max Temperature 27 °F 26 °F 46 °F (1941)
Min Temperature 1 °F 6 °F -21 °F (1989)
Degree Days  
Heating Degree Days 51    
Moisture  
Dew Point 6 °F    
Average Humidity 72    
Maximum Humidity 95    
Minimum Humidity 49    
Precipitation  
Precipitation 0.00 in - - ()
Sea Level Pressure  
Sea Level Pressure 30.10 in    
Wind  
Wind Speed 4 mph (WSW)    
Max Wind Speed 8 mph    
Max Gust Speed -    
Visibility 10 miles    
Events      
Averages and records for this station are not official NWS values.
T = Trace of Precipitation, MM = Missing Value Source: NWS Daily Summary

Daily Weather History Graph

Daily Weather History Graph

Search for Another Location

Airport or City:

Trip Planner

Search our weather history database for the weather conditions in past years. The results will help you decide how hot, cold, wet, or windy it might be!

Date:

Astronomy

Dec. 22, 2012 Rise Set
Actual Time 7:35 AM CST 4:24 PM CST
Civil Twilight 7:01 AM CST 4:57 PM CST
Nautical Twilight 6:24 AM CST 5:34 PM CST
Astronomical Twilight 5:49 AM CST 6:10 PM CST
Moon 12:48 PM CST (12/22) 2:12 AM CST (12/22)
Length of Visible Light 9h 55m
Length of Day
8h 48m
Waxing Gibbous, 74% of the Moon is Illuminated
Dec 22
Waxing Gibbous
Dec 28
Full
Jan 4
Last Quarter
Jan 11
New
Jan 18
First Quarter

Hourly Weather History & Observations

Time (CST) Temp. Windchill Dew Point Humidity Pressure Visibility Wind Dir Wind Speed Gust Speed Precip Events Conditions
12:54 AM 6.1 °F -4.3 °F 3.0 °F 87% 30.21 in 10.0 mi NW 5.8 mph - N/A   Clear
1:54 AM 5.0 °F -2.1 °F 1.9 °F 87% 30.22 in 10.0 mi WNW 3.5 mph - N/A   Clear
2:54 AM 5.0 °F - 1.9 °F 87% 30.22 in 10.0 mi Calm Calm - N/A   Clear
3:54 AM 6.1 °F -4.3 °F 3.0 °F 87% 30.21 in 10.0 mi WNW 5.8 mph - N/A   Clear
4:54 AM 5.0 °F -2.1 °F 1.9 °F 87% 30.21 in 10.0 mi NW 3.5 mph - N/A   Clear
5:54 AM 5.0 °F - 1.9 °F 87% 30.20 in 10.0 mi Calm Calm - N/A   Clear
6:54 AM 3.0 °F - -0.9 °F 84% 30.19 in 10.0 mi Calm Calm - N/A   Clear
7:54 AM 1.9 °F -7.6 °F -2.0 °F 83% 30.18 in 8.0 mi SSW 4.6 mph - N/A   Clear
8:54 AM 6.1 °F - 5.0 °F 95% 30.18 in 9.0 mi Calm Calm - N/A   Clear
9:54 AM 9.0 °F - 6.1 °F 88% 30.16 in 10.0 mi Calm Calm - N/A   Clear
10:54 AM 16.0 °F 10.4 °F 10.0 °F 77% 30.13 in 10.0 mi SSW 3.5 mph - N/A   Clear
11:54 AM 23.0 °F 14.7 °F 10.0 °F 58% 30.10 in 10.0 mi SW 6.9 mph - N/A   Clear
12:54 PM 26.1 °F 18.4 °F 10.0 °F 51% 30.06 in 10.0 mi SW 6.9 mph - N/A   Clear
1:54 PM 27.0 °F 18.7 °F 10.0 °F 49% 30.04 in 10.0 mi SSW 8.1 mph - N/A   Clear
2:54 PM 27.0 °F 20.5 °F 12.0 °F 53% 30.02 in 10.0 mi SSW 5.8 mph - N/A   Clear
3:54 PM 26.1 °F 18.4 °F 10.0 °F 51% 30.01 in 10.0 mi SW 6.9 mph - N/A   Clear
4:54 PM 24.1 °F 17.0 °F 9.0 °F 53% 30.01 in 10.0 mi SSW 5.8 mph - N/A   Clear
5:54 PM 23.0 °F 17.0 °F 8.1 °F 53% 30.00 in 10.0 mi SW 4.6 mph - N/A   Clear
6:54 PM 19.9 °F 14.9 °F 9.0 °F 62% 30.01 in 10.0 mi West 3.5 mph - N/A   Clear
7:54 PM 17.1 °F 10.0 °F 6.1 °F 62% 30.02 in 10.0 mi NW 4.6 mph - N/A   Clear
8:54 PM 16.0 °F 8.8 °F 6.1 °F 65% 30.00 in 10.0 mi WSW 4.6 mph - N/A   Clear
9:54 PM 15.1 °F 7.7 °F 6.1 °F 68% 30.01 in 10.0 mi WNW 4.6 mph - N/A   Clear
10:54 PM 12.0 °F 4.1 °F 5.0 °F 73% 30.00 in 10.0 mi WNW 4.6 mph - N/A   Clear
11:54 PM 10.9 °F 0.2 °F 5.0 °F 77% 29.99 in 10.0 mi NNW 6.9 mph - N/A   Clear